Regional Weather Roundup
Issued by NWS Cleveland, OH

Home | Current Version | Previous Version | Graphics & Text | Print | Product List | Glossary On
Versions: 1 2 3 4 5 6 7 8 9 10 11 12 13 14 15 16 17 18 19 20 21 22 23 24 25 26 27 28 29 30 31 32 33 34 35 36 37 38 39 40 41 42 43 44 45 46 47 48 49 50
000
ASUS41 KCLE 231610
RWRCLE
OHIO REGIONAL WEATHER ROUNDUP
NATIONAL WEATHER SERVICE WILMINGTON, OH
1200 PM EDT THU OCT 23 2014

NOTE: "FAIR" INDICATES FEW OR NO CLOUDS BELOW 12,000 FEET WITH NO
SIGNIFICANT WEATHER AND/OR OBSTRUCTIONS TO VISIBILITY.

OHZ001>008-015>018-024>027-034-035-043-044-231700-
   NORTHWEST OHIO

CITY           SKY/WX    TMP DP  RH WIND       PRES   REMARKS
DEFIANCE       SUNNY     50  40  68 SW7       30.26F
FINDLAY        FOG       43  41  93 CALM      30.26S VSB 1/4
TOLEDO EXPRESS PTSUNNY   50  43  76 CALM      30.26S
TOLEDO METCALF SUNNY     51  39  63 NW5       30.26S
LIMA           SUNNY     50  41  71 VRB6      30.25F
$$

OHZ009>014-019>023-028>033-038-089-231700-
   NORTHEAST OHIO

CITY           SKY/WX    TMP DP  RH WIND       PRES   REMARKS
CLE-HOPKINS    PTSUNNY   53  45  74 NW13      30.24R
CLE-LAKEFRONT  PTSUNNY   54  47  77 NW12      30.21R
CUY CO. ARPT   PTSUNNY   54  48  82 N12       30.20F
LORAIN-ELYRIA  MOSUNNY   52  44  74 NW9       30.23S
ASHTABULA      MOSUNNY   56  43  61 N8        30.17F
AKRON-CANTON   PTSUNNY   54  44  69 N9        30.18F
WOOSTER        MOSUNNY   55  43  63 N13       30.21S
MANSFIELD      MOSUNNY   49  41  74 NW8       30.24S
YOUNGSTOWN     PTSUNNY   55  45  68 NW12      30.15F
$$

OHZ042-051>053-060>062-070>072-077>081-231700-
  SOUTHWEST OHIO

CITY           SKY/WX    TMP DP  RH WIND       PRES   REMARKS
CINC-COVINGTON MOSUNNY   53  39  59 CALM      30.25F
CINC-LUNKEN    SUNNY     54  40  59 CALM      30.26F
HAMILTON       SUNNY     54  42  64 N5        30.27F
DAYTON         MOSUNNY   53  40  61 S3        30.26F
WRIGHT-PAT AFB SUNNY     52  42  67 CALM      30.25F
DAYTON GENERAL MOSUNNY   53  41  63 VRB3      30.24F
WILMINGTON     SUNNY     53  39  59 N5        30.24F
$$

OHZ036-037-039>041-045>050-054>059-063>069-073>076-082>088-231700-
  CENTRAL AND SOUTHEAST OHIO

CITY           SKY/WX    TMP DP  RH WIND       PRES   REMARKS
COLUMBUS       MOSUNNY   51  41  68 N8        30.24F
OSU AIRPORT    MOSUNNY   48  42  80 NW7       30.25S
BOLTON FIELD   SUNNY     52  43  71 NW8       30.25F
RICKENBACK AFB SUNNY     51  41  70 N6        30.24F
NEWARK         SUNNY     53  42  66 N3        30.23F
MARION         CLOUDY    44  41  89 VRB5      30.25F FOG
LANCASTER      SUNNY     51  43  74 W6        30.24F
ZANESVILLE     PTSUNNY   49  41  74 W10       30.22F
NEW PHILLY     PTSUNNY   54  45  71 W9        30.20F
$$



USA.gov is the U.S. government's official web portal to all federal, state and local government web resources and services.